This is the latest recevied weather packets stored in our database for station/object DL5DI-H. If no packets are shown the sender has not sent any weather packets the latest 10 day(s).
| Time | Temp. | Humidity | Pressure | Rain* | Wind** | Luminosity | Snow |
|---|---|---|---|---|---|---|---|
| 1777707605 | 12.22° C | 70% | 1022.3 hPa | 0 mm | - | - | - |
| 1777707001 | 11.67° C | 71% | 1022.1 hPa | 0 mm | - | - | - |
| 1777706405 | 11.67° C | 72% | 1022.2 hPa | 0 mm | - | - | - |
| 1777705805 | 11.11° C | 72% | 1022.3 hPa | 0 mm | - | - | - |
| 1777705204 | 10.56° C | 73% | 1022.5 hPa | 0 mm | - | - | - |
| 1777704605 | 10° C | 74% | 1022.4 hPa | 0 mm | - | - | - |
| 1777704001 | 9.44° C | 75% | 1022.3 hPa | 0 mm | - | - | - |
| 1777703400 | 9.44° C | 75% | 1022.3 hPa | 0 mm | - | - | - |
| 1777702801 | 8.33° C | 76% | 1022.5 hPa | 0 mm | - | - | - |
| 1777702204 | 8.33° C | 76% | 1022.5 hPa | 0 mm | - | - | - |
| 1777701600 | 8.33° C | 76% | 1022.5 hPa | 0 mm | - | - | - |
| 1777700401 | 7.22° C | 77% | 1022.5 hPa | 0 mm | - | - | - |
| 1777699804 | 7.22° C | 77% | 1022.5 hPa | 0 mm | - | - | - |
| 1777699204 | 6.67° C | 76% | 1022.4 hPa | 0 mm | - | - | - |
| 1777698605 | 6.67° C | 76% | 1022.4 hPa | 0 mm | - | - | - |
| 1777698005 | 6.67° C | 76% | 1022.4 hPa | 0 mm | - | - | - |
| 1777697401 | 6.67° C | 76% | 1022.4 hPa | 0 mm | - | - | - |
| 1777696801 | 6.67° C | 76% | 1022.4 hPa | 0 mm | - | - | - |
| 1777696201 | 6.67° C | 76% | 1022.4 hPa | 0 mm | - | - | - |
| 1777695605 | 6.67° C | 76% | 1022.4 hPa | 0 mm | - | - | - |
| 1777695001 | 6.67° C | 76% | 1022.4 hPa | 0 mm | - | - | - |
| 1777694405 | 6.67° C | 75% | 1022.5 hPa | 0 mm | - | - | - |
| 1777693801 | 6.67° C | 75% | 1022.5 hPa | 0 mm | - | - | - |
| 1777693205 | 7.22° C | 75% | 1022.5 hPa | 0 mm | - | - | - |
| 1777692001 | 7.22° C | 75% | 1022.6 hPa | 0 mm | - | - | - |
* Rain latest hour (hover to see other rain measurements)
** Current wind speed in m/s (hover to see current wind gust speed)